| time (UTC) | temp F | wind direction | speed MPH | gust MPH | rain 1hr in | rain 24hr in | rain mn in | humidity % | barometer mb |
| 20260903221545 | 72 | 129 | 0.0 | 1.0 | 0.00 | 0.00 | 0.00 | 84 | 1018.8 |
| 20260903220028 | 73 | 150 | 0.0 | 0.0 | 0.00 | 0.00 | 0.00 | 82 | 1018.7 |
| 20260903214528 | 74 | 151 | 0.0 | 0.0 | 0.00 | 0.00 | 0.00 | 82 | 1018.8 |
| 20260903213020 | 74 | 151 | 0.0 | 0.0 | 0.00 | 0.00 | 0.00 | 82 | 1018.8 |
| 20260903211517 | 74 | 151 | 0.0 | 0.0 | 0.00 | 0.00 | 0.00 | 83 | 1018.8 |
| 20260903210014 | 75 | 151 | 0.0 | 0.0 | 0.00 | 0.00 | 0.00 | 82 | 1018.7 |
| 20260903204531 | 75 | 151 | 0.0 | 0.0 | 0.00 | 0.00 | 0.00 | 81 | 1018.4 |
| 20260903203045 | 76 | 150 | 0.0 | 0.0 | 0.00 | 0.00 | 0.00 | 80 | 1018.4 |
| 20260903201526 | 76 | 150 | 0.0 | 1.0 | 0.00 | 0.00 | 0.00 | 80 | 1018.3 |
| 20260903200039 | 76 | 158 | 0.0 | 0.0 | 0.00 | 0.00 | 0.00 | 79 | 1018.2 |
| 20260903194534 | 76 | 164 | 0.0 | 1.0 | 0.00 | 0.00 | 0.00 | 77 | 1018.3 |
| 20260903193023 | 77 | 96 | 0.0 | 2.0 | 0.00 | 0.00 | 0.00 | 77 | 1018.3 |
| 20260903191535 | 77 | 113 | 0.0 | 1.0 | 0.00 | 0.00 | 0.00 | 76 | 1018.2 |
| 20260903191125 | 78 | 101 | 0.0 | 1.0 | 0.00 | 0.00 | 0.00 | 76 | 1018.3 |
| 20260903190137 | 78 | 82 | 0.0 | 1.0 | 0.00 | 0.00 | 0.00 | 75 | 1018.3 |
| 20260903190034 | 78 | 80 | 0.0 | 1.0 | 0.00 | 0.00 | 0.00 | 75 | 1018.1 |
| 20260903185137 | 79 | 94 | 0.0 | 1.0 | 0.00 | 0.00 | 0.00 | 75 | 1018.2 |
| 20260903184532 | 78 | 94 | 1.0 | 1.0 | 0.00 | 0.00 | 0.00 | 73 | 1018.1 |
| 20260903184218 | 79 | 94 | 0.0 | 1.0 | 0.00 | 0.00 | 0.00 | 74 | 1018.2 |
| 20260903183123 | 80 | 94 | 1.0 | 2.0 | 0.00 | 0.00 | 0.00 | 73 | 1018.2 |
| 20260903183029 | 79 | 94 | 1.0 | 2.0 | 0.00 | 0.00 | 0.00 | 72 | 1018.1 |
| 20260903182156 | 80 | 99 | 1.0 | 1.0 | 0.00 | 0.00 | 0.00 | 73 | 1018.2 |
| 20260903181527 | 79 | 99 | 0.0 | 2.0 | 0.00 | 0.00 | 0.00 | 72 | 1018.0 |
| 20260903181148 | 80 | 99 | 1.0 | 2.0 | 0.00 | 0.00 | 0.00 | 73 | 1018.1 |
| 20260903180033 | 80 | 100 | 1.0 | 3.0 | 0.00 | 0.00 | 0.00 | 72 | 1017.9 |
| 20260903174533 | 80 | 84 | 3.0 | 4.0 | 0.00 | 0.00 | 0.00 | 71 | 1017.8 |
| 20260903173034 | 81 | 95 | 3.0 | 4.0 | 0.00 | 0.00 | 0.00 | 70 | 1017.7 |
| 20260903171537 | 81 | 93 | 3.0 | 5.0 | 0.00 | 0.00 | 0.00 | 70 | 1017.7 |
| 20260903170032 | 82 | 94 | 5.0 | 6.0 | 0.00 | 0.00 | 0.00 | 69 | 1017.6 |
| 20260903164504 | 83 | 88 | 5.0 | 7.0 | 0.00 | 0.00 | 0.00 | 68 | 1017.5 |
| 20260903163038 | 83 | 92 | 5.0 | 8.0 | 0.00 | 0.00 | 0.00 | 68 | 1017.5 |
| 20260903161520 | 83 | 86 | 5.0 | 9.0 | 0.00 | 0.00 | 0.00 | 68 | 1017.4 |
| 20260903160016 | 83 | 84 | 7.0 | 10.0 | 0.00 | 0.00 | 0.00 | 66 | 1017.3 |
| 20260903154511 | 83 | 93 | 7.0 | 10.0 | 0.00 | 0.00 | 0.00 | 66 | 1017.6 |
| 20260903153008 | 84 | 92 | 5.0 | 8.0 | 0.00 | 0.00 | 0.00 | 62 | 1017.9 |
| 20260903151505 | 85 | 42 | 4.0 | 10.0 | 0.00 | 0.00 | 0.00 | 60 | 1017.8 |
| 20260903150026 | 85 | 34 | 5.0 | 9.0 | 0.00 | 0.00 | 0.00 | 59 | 1017.9 |
| 20260903144523 | 86 | 84 | 4.0 | 13.0 | 0.00 | 0.00 | 0.00 | 59 | 1017.9 |
| 20260903143017 | 86 | 100 | 8.0 | 12.0 | 0.00 | 0.00 | 0.00 | 61 | 1017.9 |
| 20260903141515 | 85 | 101 | 8.0 | 12.0 | 0.00 | 0.00 | 0.00 | 63 | 1018.0 |
| 20260903140017 | 87 | 74 | 5.0 | 9.0 | 0.00 | 0.00 | 0.00 | 59 | 1018.0 |
| 20260903134533 | 86 | 84 | 8.0 | 11.0 | 0.00 | 0.00 | 0.00 | 61 | 1018.1 |
| 20260903133028 | 86 | 70 | 6.0 | 11.0 | 0.00 | 0.00 | 0.00 | 61 | 1018.3 |
| 20260903131526 | 87 | 71 | 6.0 | 12.0 | 0.00 | 0.00 | 0.00 | 58 | 1018.2 |
| 20260903130027 | 89 | 7 | 4.0 | 8.0 | 0.00 | 0.00 | 0.00 | 47 | 1018.2 |
| 20260903124517 | 89 | 26 | 6.0 | 9.0 | 0.00 | 0.00 | 0.00 | 46 | 1018.1 |
| 20260903123013 | 89 | 27 | 1.0 | 8.0 | 0.00 | 0.00 | 0.00 | 52 | 1018.2 |
| 20260903121542 | 88 | 332 | 4.0 | 9.0 | 0.00 | 0.00 | 0.00 | 50 | 1018.4 |
| 20260903120034 | 88 | 330 | 4.0 | 9.0 | 0.00 | 0.00 | 0.00 | 50 | 1018.3 |
| 20260903114534 | 88 | 231 | 4.0 | 9.0 | 0.00 | 0.00 | 0.00 | 51 | 1018.4 |
| 20260903113035 | 88 | 27 | 4.0 | 8.0 | 0.00 | 0.00 | 0.00 | 51 | 1018.5 |
| 20260903111523 | 88 | 354 | 3.0 | 7.0 | 0.00 | 0.00 | 0.00 | 52 | 1018.7 |
| 20260903110034 | 87 | 338 | 3.0 | 10.0 | 0.00 | 0.00 | 0.00 | 51 | 1018.8 |
| 20260903104533 | 87 | 341 | 7.0 | 14.0 | 0.00 | 0.00 | 0.00 | 49 | 1018.9 |
| 20260903103035 | 87 | 330 | 4.0 | 11.0 | 0.00 | 0.00 | 0.00 | 49 | 1019.0 |
| 20260903101529 | 86 | 321 | 5.0 | 10.0 | 0.00 | 0.00 | 0.00 | 48 | 1019.4 |
| 20260903100031 | 86 | 331 | 4.0 | 10.0 | 0.00 | 0.00 | 0.00 | 53 | 1019.6 |
| 20260903094515 | 85 | 333 | 4.0 | 8.0 | 0.00 | 0.00 | 0.00 | 52 | 1019.6 |
| 20260903093002 | 85 | 8 | 3.0 | 8.0 | 0.00 | 0.00 | 0.00 | 57 | 1019.6 |
| 20260903091502 | 84 | 13 | 3.0 | 10.0 | 0.00 | 0.00 | 0.00 | 58 | 1019.7 |
| 20260903090010 | 84 | 311 | 4.0 | 8.0 | 0.00 | 0.00 | 0.00 | 57 | 1019.7 |
| 20260903084508 | 83 | 323 | 4.0 | 9.0 | 0.00 | 0.00 | 0.00 | 64 | 1019.6 |
| 20260903083003 | 82 | 340 | 4.0 | 9.0 | 0.00 | 0.00 | 0.00 | 64 | 1019.5 |
| 20260903081504 | 81 | 318 | 3.0 | 7.0 | 0.00 | 0.00 | 0.00 | 69 | 1019.4 |
| 20260903080005 | 80 | 328 | 4.0 | 8.0 | 0.00 | 0.00 | 0.00 | 72 | 1019.4 |
| 20260903074504 | 79 | 306 | 3.0 | 7.0 | 0.00 | 0.00 | 0.00 | 73 | 1019.4 |
| 20260903073013 | 77 | 308 | 4.0 | 6.0 | 0.00 | 0.00 | 0.00 | 76 | 1019.3 |
| 20260903071510 | 76 | 305 | 4.0 | 6.0 | 0.00 | 0.00 | 0.00 | 77 | 1019.3 |
| 20260903070007 | 75 | 290 | 3.0 | 5.0 | 0.00 | 0.00 | 0.00 | 79 | 1019.3 |
| 20260903065125 | 73 | 290 | 2.0 | 4.0 | 0.00 | 0.00 | 0.00 | 82 | 1019.1 |
| 20260903065122 | 72 | 250 | 3.0 | 4.0 | 0.00 | 0.00 | 0.00 | 82 | 1018.9 |
| 20260903065117 | 71 | 295 | 2.0 | 5.0 | 0.00 | 0.00 | 0.00 | 84 | 1019.0 |
| 20260903060136 | 70 | 255 | 3.0 | 4.0 | 0.00 | 0.00 | 0.00 | 86 | 1019.0 |
| 20260903060023 | 69 | 261 | 3.0 | 6.0 | 0.00 | 0.00 | 0.00 | 86 | 1018.9 |
| 20260903055139 | 70 | 250 | 3.0 | 6.0 | 0.00 | 0.00 | 0.00 | 86 | 1019.0 |
| 20260903054538 | 68 | 245 | 2.0 | 4.0 | 0.00 | 0.00 | 0.00 | 87 | 1018.8 |
| 20260903054151 | 69 | 249 | 1.0 | 4.0 | 0.00 | 0.00 | 0.00 | 88 | 1018.8 |
| 20260903053142 | 68 | 249 | 3.0 | 4.0 | 0.00 | 0.00 | 0.00 | 87 | 1018.8 |
| 20260903053013 | 67 | 245 | 3.0 | 4.0 | 0.00 | 0.00 | 0.00 | 87 | 1018.6 |
| 20260903052125 | 67 | 240 | 2.0 | 4.0 | 0.00 | 0.00 | 0.00 | 89 | 1018.7 |
| 20260903051508 | 66 | 223 | 2.0 | 5.0 | 0.00 | 0.00 | 0.00 | 88 | 1018.6 |
| 20260903051130 | 67 | 240 | 3.0 | 5.0 | 0.00 | 0.00 | 0.00 | 88 | 1018.7 |
| 20260903050203 | 67 | 245 | 1.0 | 4.0 | 0.00 | 0.00 | 0.00 | 88 | 1018.6 |
| 20260903050008 | 66 | 245 | 1.0 | 4.0 | 0.00 | 0.00 | 0.00 | 87 | 1018.4 |
| 20260903045133 | 67 | 237 | 2.0 | 3.0 | 0.00 | 0.00 | 0.00 | 88 | 1018.6 |
| 20260903044504 | 67 | 238 | 1.0 | 2.0 | 0.00 | 0.00 | 0.00 | 87 | 1018.3 |
| 20260903044128 | 68 | 252 | 0.0 | 2.0 | 0.00 | 0.00 | 0.00 | 88 | 1018.4 |
| 20260903043133 | 68 | 239 | 2.0 | 3.0 | 0.00 | 0.00 | 0.00 | 88 | 1018.4 |
| 20260903043025 | 67 | 245 | 2.0 | 3.0 | 0.00 | 0.00 | 0.00 | 87 | 1018.3 |
| 20260903042136 | 68 | 262 | 1.0 | 1.0 | 0.00 | 0.00 | 0.00 | 87 | 1018.4 |
| 20260903041518 | 67 | 242 | 0.0 | 1.0 | 0.00 | 0.00 | 0.00 | 87 | 1018.2 |
| 20260903041147 | 68 | 241 | 0.0 | 1.0 | 0.00 | 0.00 | 0.00 | 88 | 1018.2 |
| 20260903040141 | 68 | 241 | 1.0 | 3.0 | 0.00 | 0.00 | 0.00 | 87 | 1018.3 |
| 20260903040018 | 68 | 235 | 2.0 | 3.0 | 0.00 | 0.00 | 0.00 | 87 | 1018.2 |
| 20260903035156 | 68 | 249 | 1.0 | 3.0 | 0.00 | 0.00 | 0.00 | 88 | 1018.4 |
| 20260903034511 | 68 | 278 | 2.0 | 2.0 | 0.00 | 0.00 | 0.00 | 88 | 1018.4 |
| 20260903034126 | 68 | 311 | 1.0 | 2.0 | 0.00 | 0.00 | 0.00 | 88 | 1018.4 |
| 20260903033131 | 68 | 318 | 1.0 | 2.0 | 0.00 | 0.00 | 0.00 | 88 | 1018.3 |
| 20260903033009 | 67 | 341 | 1.0 | 2.0 | 0.00 | 0.00 | 0.00 | 87 | 1018.3 |
| 20260903032142 | 68 | 238 | 0.0 | 0.0 | 0.00 | 0.00 | 0.00 | 87 | 1018.2 |
| 20260903031529 | 68 | 238 | 0.0 | 1.0 | 0.00 | 0.00 | 0.00 | 85 | 1018.1 |
| 20260903031133 | 69 | 238 | 0.0 | 2.0 | 0.00 | 0.00 | 0.00 | 87 | 1018.2 |
| 20260903030144 | 69 | 209 | 0.0 | 2.0 | 0.00 | 0.00 | 0.00 | 86 | 1018.2 |
| 20260903030039 | 68 | 195 | 0.0 | 2.0 | 0.00 | 0.00 | 0.00 | 86 | 1018.1 |
| 20260903025127 | 69 | 223 | 0.0 | 1.0 | 0.00 | 0.00 | 0.00 | 86 | 1018.2 |
| 20260903024537 | 68 | 201 | 0.0 | 2.0 | 0.00 | 0.00 | 0.00 | 86 | 1018.2 |
| 20260903024134 | 69 | 201 | 0.0 | 3.0 | 0.00 | 0.00 | 0.00 | 86 | 1018.2 |
| 20260903023141 | 69 | 231 | 2.0 | 3.0 | 0.00 | 0.00 | 0.00 | 87 | 1018.2 |
| 20260903023018 | 68 | 236 | 2.0 | 3.0 | 0.00 | 0.00 | 0.00 | 86 | 1018.1 |
| 20260903022126 | 69 | 251 | 2.0 | 2.0 | 0.00 | 0.00 | 0.00 | 86 | 1018.3 |
| 20260903021518 | 69 | 248 | 1.0 | 3.0 | 0.00 | 0.00 | 0.00 | 85 | 1018.2 |
| 20260903021138 | 69 | 250 | 2.0 | 3.0 | 0.00 | 0.00 | 0.00 | 85 | 1018.3 |
| 20260903020149 | 70 | 231 | 2.0 | 4.0 | 0.00 | 0.00 | 0.00 | 86 | 1018.2 |
| 20260903020010 | 69 | 252 | 2.0 | 4.0 | 0.00 | 0.00 | 0.00 | 85 | 1018.2 |
| 20260903015155 | 70 | 214 | 2.0 | 4.0 | 0.00 | 0.00 | 0.00 | 85 | 1018.1 |
| 20260903014533 | 70 | 244 | 2.0 | 3.0 | 0.00 | 0.00 | 0.00 | 84 | 1018.1 |
| 20260903014156 | 70 | 251 | 2.0 | 3.0 | 0.00 | 0.00 | 0.00 | 85 | 1018.2 |
| 20260903013127 | 70 | 238 | 1.0 | 3.0 | 0.00 | 0.00 | 0.00 | 84 | 1018.1 |
| 20260903013003 | 70 | 235 | 1.0 | 4.0 | 0.00 | 0.00 | 0.00 | 84 | 1018.1 |
| 20260903012130 | 71 | 227 | 3.0 | 4.0 | 0.00 | 0.00 | 0.00 | 84 | 1018.1 |
| 20260903011506 | 71 | 232 | 0.0 | 0.0 | 0.00 | 0.00 | 0.00 | 84 | 1018.0 |
| 20260903011200 | 71 | 237 | 0.0 | 0.0 | 0.00 | 0.00 | 0.00 | 84 | 1018.1 |
| 20260903010153 | 71 | 245 | 0.0 | 0.0 | 0.00 | 0.00 | 0.00 | 84 | 1018.1 |
| 20260903010002 | 71 | 238 | 0.0 | 0.0 | 0.00 | 0.00 | 0.00 | 84 | 1017.9 |
| 20260903005125 | 72 | 241 | 0.0 | 0.0 | 0.00 | 0.00 | 0.00 | 84 | 1018.0 |
| 20260903004504 | 71 | 233 | 0.0 | 0.0 | 0.00 | 0.00 | 0.00 | 83 | 1017.8 |
| 20260903004126 | 72 | 232 | 0.0 | 0.0 | 0.00 | 0.00 | 0.00 | 84 | 1018.0 |
| 20260903003134 | 72 | 229 | 0.0 | 0.0 | 0.00 | 0.00 | 0.00 | 84 | 1017.9 |
| 20260903003003 | 71 | 233 | 0.0 | 0.0 | 0.00 | 0.00 | 0.00 | 83 | 1017.8 |
| 20260903002139 | 72 | 236 | 0.0 | 0.0 | 0.00 | 0.00 | 0.00 | 84 | 1017.9 |
| 20260903001503 | 71 | 237 | 0.0 | 0.0 | 0.00 | 0.00 | 0.00 | 84 | 1017.8 |
| 20260903001128 | 72 | 238 | 0.0 | 0.0 | 0.00 | 0.00 | 0.00 | 85 | 1018.0 |
| 20260903000129 | 72 | 238 | 0.0 | 0.0 | 0.00 | 0.00 | 0.00 | 85 | 1018.0 |
| 20260903000004 | 71 | 238 | 0.0 | 0.0 | 0.00 | 0.00 | 0.00 | 84 | 1017.9 |
| 20260902235158 | 72 | 238 | 0.0 | 0.0 | 0.00 | 0.00 | 0.00 | 85 | 1018.0 |
| 20260902234504 | 71 | 238 | 0.0 | 0.0 | 0.00 | 0.00 | 0.00 | 84 | 1017.8 |
| 20260902234130 | 72 | 238 | 0.0 | 0.0 | 0.00 | 0.00 | 0.00 | 84 | 1017.9 |
| 20260902233131 | 72 | 236 | 0.0 | 0.0 | 0.00 | 0.00 | 0.00 | 84 | 1017.9 |
| 20260902233013 | 72 | 236 | 0.0 | 0.0 | 0.00 | 0.00 | 0.00 | 84 | 1017.8 |
| 20260902232134 | 73 | 226 | 0.0 | 0.0 | 0.00 | 0.00 | 0.00 | 84 | 1018.0 |
| 20260902231502 | 73 | 231 | 0.0 | 0.0 | 0.00 | 0.00 | 0.00 | 82 | 1017.7 |
| 20260902231127 | 73 | 232 | 0.0 | 0.0 | 0.00 | 0.00 | 0.00 | 82 | 1018.0 |
| 20260902230129 | 74 | 221 | 0.0 | 0.0 | 0.00 | 0.00 | 0.00 | 82 | 1018.0 |
| 20260902230006 | 73 | 221 | 0.0 | 0.0 | 0.00 | 0.00 | 0.00 | 81 | 1017.8 |
| 20260902225159 | 74 | 210 | 0.0 | 0.0 | 0.00 | 0.00 | 0.00 | 81 | 1017.9 |
| 20260902224504 | 74 | 210 | 0.0 | 0.0 | 0.00 | 0.00 | 0.00 | 81 | 1017.8 |
| 20260902224125 | 74 | 210 | 0.0 | 0.0 | 0.00 | 0.00 | 0.00 | 81 | 1017.9 |
| 20260902223131 | 75 | 210 | 0.0 | 1.0 | 0.00 | 0.00 | 0.00 | 81 | 1018.0 |
| 20260902223002 | 74 | 210 | 0.0 | 1.0 | 0.00 | 0.00 | 0.00 | 80 | 1017.8 |